Weather History for Myrtle Beach, SC

Change the Weather History Date:

Saturday, April 12, 2014

  Actual Average Record
Temperature  
Mean Temperature 68 °F -  
Max Temperature 75 °F 69 °F 85 °F (1993)
Min Temperature 60 °F 51 °F 34 °F (1989)
Cooling Degree Days 2    
Growing Degree Days 18 (Base 50)    
Moisture  
Dew Point 57 °F    
Average Humidity 74    
Maximum Humidity 94    
Minimum Humidity 50    
Precipitation  
Precipitation 0.00 in - - ()
Sea Level Pressure  
Sea Level Pressure 30.20 in    
Wind  
Wind Speed 4 mph (South)    
Max Wind Speed 16 mph    
Max Gust Speed -    
Visibility 10 miles    
Events      
Averages and records for this station are not official NWS values.
T = Trace of Precipitation, MM = Missing Value Source: NWS Daily Summary

Daily Weather History Graph

Daily Weather History Graph

Search for Another Location

Airport:

Trip Planner

Search our weather history database for the weather conditions in past years. The results will help you decide how hot, cold, wet, or windy it might be!

Date:

Astronomy

Apr. 12, 2014 Rise Set
Actual Time 6:48 AM EDT 7:44 PM EDT
Civil Twilight 6:23 AM EDT 8:10 PM EDT
Nautical Twilight 5:53 AM EDT 8:40 PM EDT
Astronomical Twilight 5:22 AM EDT 9:11 PM EDT
Moon 5:27 PM EDT (4/12) 5:07 AM EDT (4/12)
Length of Visible Light 13h 46m
Length of Day
12h 55m
Waxing Gibbous, 93% of the Moon is Illuminated
Apr 12
Waxing Gibbous
Apr 15
Full
Apr 22
Last Quarter
Apr 29
New
May 6
First Quarter

Hourly Weather History & Observations

Time (EDT) Temp. Dew Point Humidity Pressure Visibility Wind Dir Wind Speed Gust Speed Precip Events Conditions
12:15 AM 64.4 °F 55.4 °F 73% 30.20 in 10.0 mi South 6.9 mph - N/A   Clear
12:35 AM 62.6 °F 55.4 °F 77% 30.20 in 10.0 mi Calm Calm - N/A   Clear
12:55 AM 62.6 °F 55.4 °F 77% 30.20 in 10.0 mi Calm Calm - N/A   Clear
1:15 AM 62.6 °F 55.4 °F 77% 30.20 in 10.0 mi Calm Calm - N/A   Clear
1:35 AM 62.6 °F 55.4 °F 77% 30.20 in 10.0 mi Calm Calm - N/A   Clear
1:55 AM 62.6 °F 55.4 °F 77% 30.20 in 10.0 mi Calm Calm - N/A   Clear
2:15 AM 62.6 °F 55.4 °F 77% 30.19 in 10.0 mi Calm Calm - N/A   Clear
2:35 AM 62.6 °F 55.4 °F 77% 30.19 in 10.0 mi Calm Calm - N/A   Clear
2:55 AM 62.6 °F 55.4 °F 77% 30.19 in 10.0 mi Calm Calm - N/A   Clear
3:15 AM 62.6 °F 55.4 °F 77% 30.19 in 10.0 mi Calm Calm - N/A   Clear
3:35 AM 62.6 °F 53.6 °F 72% 30.18 in 10.0 mi Calm Calm - N/A   Clear
3:55 AM 62.6 °F 53.6 °F 72% 30.18 in 10.0 mi Calm Calm - N/A   Clear
4:15 AM 62.6 °F 53.6 °F 72% 30.18 in 10.0 mi Calm Calm - N/A   Clear
4:35 AM 60.8 °F 53.6 °F 77% 30.18 in 10.0 mi Calm Calm - N/A   Partly Cloudy
4:55 AM 60.8 °F 53.6 °F 77% 30.18 in 10.0 mi Calm Calm - N/A   Mostly Cloudy
5:15 AM 62.6 °F 55.4 °F 77% 30.18 in 10.0 mi Calm Calm - N/A   Mostly Cloudy
5:35 AM 62.6 °F 55.4 °F 77% 30.18 in 10.0 mi Calm Calm - N/A   Mostly Cloudy
5:50 AM 62.6 °F 55.4 °F 77% 30.19 in 10.0 mi SW 6.9 mph - N/A   Clear
6:50 AM 60.8 °F 55.4 °F 82% 30.20 in 10.0 mi SSW 6.9 mph - N/A   Scattered Clouds
8:50 AM 64.4 °F 55.4 °F 73% 30.23 in 10.0 mi Calm Calm - N/A   Partly Cloudy
9:50 AM 69.8 °F 55.4 °F 60% 30.23 in 10.0 mi WSW 11.5 mph - N/A   Clear
10:50 AM 75.2 °F 55.4 °F 50% 30.24 in 10.0 mi West 11.5 mph - N/A   Clear
11:53 AM 73.4 °F 60.8 °F 65% 30.24 in 10.0 mi SSE 11.5 mph - N/A   Clear
12:50 PM 73.4 °F 59.0 °F 61% 30.22 in 10.0 mi SSE 13.8 mph - N/A   Clear
1:54 PM 71.6 °F 60.8 °F 69% 30.21 in 10.0 mi South 16.1 mph - N/A   Scattered Clouds
2:45 PM 73.4 °F 60.8 °F 65% 30.20 in 10.0 mi South 12.7 mph - N/A   Clear
3:45 PM 73.4 °F 59.0 °F 61% 30.18 in 10.0 mi South 12.7 mph - N/A   Clear
4:45 PM 73.4 °F 60.8 °F 65% 30.17 in 10.0 mi South 11.5 mph - N/A   Clear
5:47 PM 71.6 °F 59.0 °F 64% 30.17 in 10.0 mi South 11.5 mph - N/A   Clear
6:45 PM 71.6 °F 59.0 °F 64% 30.17 in 10.0 mi South 12.7 mph - N/A   Clear
7:47 PM 66.2 °F 60.8 °F 83% 30.17 in 10.0 mi South 11.5 mph - N/A   Clear
9:47 PM 66.2 °F 62.6 °F 88% 30.20 in 10.0 mi South 11.5 mph - N/A   Clear
10:47 PM 64.4 °F 60.8 °F 88% 30.22 in 10.0 mi SSW 5.8 mph - N/A   Clear
11:15 PM 64.4 °F 62.6 °F 94% 30.22 in 10.0 mi South 5.8 mph - N/A   Clear
11:35 PM 64.4 °F 62.6 °F 94% 30.22 in 10.0 mi South 5.8 mph - N/A   Clear
11:55 PM 64.4 °F 60.8 °F 88% 30.21 in 10.0 mi SSE 4.6 mph - N/A   Clear